Showing default

CHINASAT 1C, 41103

Orbit data source: Space-Track

CHINASAT 1C, 41103 is a payload satellite owned by PLA GAD (CN) in GEO that was launched on Wed, 09 Dec 2015 UTC via a CHANG ZHENG 3B launch vehicle from the Xichang Space Center, China (XSC). Payload-class satellites include a variety of spacecraft equipped with specific instruments for various scientific and technological missions. These include communications satellites like Starlink; space stations such as the ISS; scientific satellites like the Hubble; Earth observation satellites from companies like Planet Labs, Umbra, and HawkEye 360; GPS; miniature CubeSats for education and research; and military/defense satellites.

Loading next visibility...
Identifier
41103, 2015-073A
Orbit
GEO
Country
Flag of CNCN / PRC
Related business
Manufacturer
CAST?
Mission
Non-operational Defense Communications
Bus & Motor
DFH-4?, DFH-4 LAE
Mass
~5,000 kg wet, ~2,500 kg dry
Launch date (UTC)
2015-12-09 (10 years ago)
Launch vehicle
CHANG ZHENG 3B
Launch site
Xichang Space Center, China (XSC)
Object type
Payload
Rocket body
Debris
Shape & HBR
Box + 2 Pan, 15.0 m
Radar Cross Section
34.063 m², Large (>1 m²)

Expand to show TLE details & history
Last TLE update: 8 hours ago

TLE from 8 hours ago
0 CHINASAT 1C
1 41103U 15073A   26111.90567544  .00000075  00000-0  00000-0 0  9998
2 41103   6.9623  69.5956 0005527 191.1088 148.7200  0.99165147 37985
Epoch: 2026-04-21T21:44Z
TLE epoch observation values (Epoch: 2026-04-21T21:44:10.358Z)
Latitude
-2.38165°
Longitude
-126.42175°
Altitude
36,119.684 km
Speed
3.062 km/s
True Right ascension
03h 18m 23s
True Declination
-2° 22' 45"
Sunlit
Object was in daylight at epoch
Visualization orbit readout
Latitude
Unknown
Longitude
Unknown
Altitude
Unknown
Speed
Unknown
Apparent Right ascension
Unknown
Apparent Declination
Unknown
Sunlit
N/A
Visualization observer readout
Local Sidereal Time
12:18:39
Azimuth
Unknown
Elevation
Unknown
Doppler factor
Unknown
Orbital elements
Apogee altitude
36,124.225 km
Perigee altitude
36,077.269 km
Semi-major axis
42,478.884 km
Eccentricity
0.00055
Inclination
6.9623°
RAAN
69.5956°
Arg. of periapsis
191.1088°
True anomaly
148.75287°
Mean anomaly
148.72°
Eccentric anomaly
148.73643°
Mean motion
0.2479 °/min
Orbital period
1,452.18 mins
BSTAR
0
Loading maneuver chart data...
Computing Atmospheric mass density...
Loading historical data...
Loading historical data...
Loading historical data...
Loading historical data...
Loading historical data...
Loading historical data...
Loading historical data...
Other satellites on launch #73 in the year 2015 (2015-12-09 UTC)

Documentation

Showing up to 5 results
|